Time,TemperatureF,DewpointF,PressureIn,WindDirection,WindDirectionDegrees,WindSpeedMPH,WindSpeedGustMPH,Humidity,HourlyPrecipIn,Conditions,Clouds,dailyrainin,SoftwareType,DateUTC
2013-06-05 00:01:00,66.5,62.1,29.88,North,-999,-999.0,-999.0,85,0.00,,,0.00,tws,2013-06-05 04:01:00,
2013-06-05 00:06:00,66.4,62.1,29.87,North,-999,-999.0,-999.0,85,0.00,,,0.00,tws,2013-06-05 04:06:00,
2013-06-05 00:11:00,66.4,62.0,29.87,North,-999,-999.0,-999.0,85,0.00,,,0.00,tws,2013-06-05 04:11:00,
2013-06-05 00:16:00,66.3,61.9,29.87,North,-999,-999.0,-999.0,85,0.00,,,0.00,tws,2013-06-05 04:16:00,
2013-06-05 00:26:00,66.0,61.8,29.87,North,-999,-999.0,-999.0,86,0.00,,,0.00,tws,2013-06-05 04:26:00,
2013-06-05 00:31:00,65.9,61.8,29.86,North,-999,-999.0,-999.0,86,0.00,,,0.00,tws,2013-06-05 04:31:00,
2013-06-05 00:36:00,65.9,61.7,29.86,North,-999,-999.0,-999.0,86,0.00,,,0.00,tws,2013-06-05 04:36:00,
2013-06-05 00:46:00,65.6,61.8,29.86,North,-999,-999.0,-999.0,87,0.00,,,0.00,tws,2013-06-05 04:46:00,
2013-06-05 00:51:00,65.5,61.7,29.87,North,-999,-999.0,-999.0,87,0.00,,,0.00,tws,2013-06-05 04:51:00,
2013-06-05 00:56:00,65.4,61.6,29.87,North,-999,-999.0,-999.0,87,0.00,,,0.00,tws,2013-06-05 04:56:00,
2013-06-05 01:01:00,65.4,61.7,29.87,North,-999,-999.0,-999.0,87,0.00,,,0.00,tws,2013-06-05 05:01:00,
2013-06-05 01:06:00,65.4,61.7,29.87,North,-999,-999.0,-999.0,87,0.00,,,0.00,tws,2013-06-05 05:06:00,
2013-06-05 01:11:00,65.3,61.8,29.87,North,-999,-999.0,-999.0,88,0.00,,,0.00,tws,2013-06-05 05:11:00,
2013-06-05 01:16:00,65.4,61.8,29.87,North,-999,-999.0,-999.0,88,0.00,,,0.00,tws,2013-06-05 05:16:00,
2013-06-05 01:21:00,65.4,61.9,29.87,North,-999,-999.0,-999.0,88,0.00,,,0.00,tws,2013-06-05 05:21:00,
2013-06-05 01:31:00,65.4,61.9,29.87,North,-999,-999.0,-999.0,88,0.00,,,0.00,tws,2013-06-05 05:31:00,
2013-06-05 01:36:00,65.4,62.0,29.87,North,-999,-999.0,-999.0,88,0.00,,,0.00,tws,2013-06-05 05:36:00,
2013-06-05 01:41:00,65.3,62.0,29.87,North,-999,-999.0,-999.0,88,0.00,,,0.00,tws,2013-06-05 05:41:00,
2013-06-05 01:46:00,65.3,62.0,29.87,North,-999,-999.0,-999.0,88,0.00,,,0.00,tws,2013-06-05 05:46:00,
2013-06-05 01:56:00,65.2,62.0,29.86,North,-999,-999.0,-999.0,89,0.00,,,0.00,tws,2013-06-05 05:56:00,
2013-06-05 02:06:00,65.2,62.1,29.87,North,-999,-999.0,-999.0,89,0.00,,,0.00,tws,2013-06-05 06:06:00,
2013-06-05 02:17:00,65.2,62.1,29.87,North,-999,-999.0,-999.0,89,0.00,,,0.00,tws,2013-06-05 06:17:00,
2013-06-05 02:26:00,65.2,62.0,29.87,North,-999,-999.0,-999.0,89,0.00,,,0.00,tws,2013-06-05 06:26:00,
2013-06-05 02:36:00,65.2,61.9,29.87,North,-999,-999.0,-999.0,89,0.00,,,0.00,tws,2013-06-05 06:36:00,
2013-06-05 02:41:00,65.2,61.9,29.87,North,-999,-999.0,-999.0,88,0.00,,,0.00,tws,2013-06-05 06:41:00,
2013-06-05 02:46:00,65.2,62.0,29.87,North,-999,-999.0,-999.0,89,0.00,,,0.00,tws,2013-06-05 06:46:00,
2013-06-05 02:51:00,65.2,61.9,29.87,North,-999,-999.0,-999.0,89,0.00,,,0.00,tws,2013-06-05 06:51:00,
2013-06-05 03:01:00,65.1,61.9,29.86,North,-999,-999.0,-999.0,89,0.00,,,0.00,tws,2013-06-05 07:01:00,
2013-06-05 03:11:00,65.0,61.9,29.86,North,-999,-999.0,-999.0,89,0.00,,,0.00,tws,2013-06-05 07:11:00,
2013-06-05 03:16:00,64.9,61.8,29.86,North,-999,-999.0,-999.0,89,0.00,,,0.00,tws,2013-06-05 07:16:00,
2013-06-05 03:21:00,64.8,61.8,29.85,North,-999,-999.0,-999.0,89,0.00,,,0.00,tws,2013-06-05 07:21:00,
2013-06-05 03:31:00,64.7,61.9,29.85,North,-999,-999.0,-999.0,90,0.00,,,0.00,tws,2013-06-05 07:31:00,
2013-06-05 03:36:00,64.6,61.9,29.85,North,-999,-999.0,-999.0,90,0.00,,,0.00,tws,2013-06-05 07:36:00,
2013-06-05 03:41:00,64.6,61.8,29.85,North,-999,-999.0,-999.0,90,0.00,,,0.00,tws,2013-06-05 07:41:00,
2013-06-05 03:46:00,64.6,62.0,29.84,North,-999,-999.0,-999.0,90,0.00,,,0.00,tws,2013-06-05 07:46:00,
2013-06-05 03:51:00,64.7,62.1,29.84,North,-999,-999.0,-999.0,91,0.00,,,0.00,tws,2013-06-05 07:51:00,
2013-06-05 03:56:00,64.7,62.1,29.84,North,-999,-999.0,-999.0,90,0.00,,,0.00,tws,2013-06-05 07:56:00,
2013-06-05 04:06:00,64.9,62.3,29.84,North,-999,-999.0,-999.0,91,0.00,,,0.00,tws,2013-06-05 08:06:00,
2013-06-05 04:11:00,64.9,62.3,29.85,North,-999,-999.0,-999.0,91,0.00,,,0.00,tws,2013-06-05 08:11:00,
2013-06-05 04:16:00,64.9,62.4,29.85,North,-999,-999.0,-999.0,91,0.00,,,0.00,tws,2013-06-05 08:16:00,
2013-06-05 04:21:00,65.0,62.4,29.85,North,-999,-999.0,-999.0,91,0.00,,,0.00,tws,2013-06-05 08:21:00,
2013-06-05 04:31:00,64.9,62.3,29.85,North,-999,-999.0,-999.0,91,0.00,,,0.00,tws,2013-06-05 08:31:00,
2013-06-05 04:36:00,64.9,62.4,29.86,North,-999,-999.0,-999.0,91,0.00,,,0.00,tws,2013-06-05 08:36:00,
2013-06-05 04:46:00,64.9,62.4,29.86,North,-999,-999.0,-999.0,91,0.00,,,0.00,tws,2013-06-05 08:46:00,
2013-06-05 04:56:00,64.8,62.4,29.86,North,-999,-999.0,-999.0,91,0.00,,,0.00,tws,2013-06-05 08:56:00,
2013-06-05 05:06:00,64.7,62.3,29.86,North,-999,-999.0,-999.0,91,0.00,,,0.00,tws,2013-06-05 09:06:00,
2013-06-05 05:11:00,64.7,62.4,29.86,North,-999,-999.0,-999.0,92,0.00,,,0.00,tws,2013-06-05 09:11:00,
2013-06-05 05:16:00,64.6,62.3,29.86,North,-999,-999.0,-999.0,91,0.00,,,0.00,tws,2013-06-05 09:16:00,
2013-06-05 05:21:00,64.6,62.3,29.86,North,-999,-999.0,-999.0,92,0.00,,,0.00,tws,2013-06-05 09:21:00,
2013-06-05 05:26:00,64.3,62.2,29.86,North,-999,-999.0,-999.0,92,0.00,,,0.00,tws,2013-06-05 09:26:00,
2013-06-05 05:31:00,64.1,62.2,29.86,North,-999,-999.0,-999.0,93,0.00,,,0.00,tws,2013-06-05 09:31:00,
2013-06-05 05:36:00,63.9,62.0,29.85,North,-999,-999.0,-999.0,93,0.00,,,0.00,tws,2013-06-05 09:36:00,
2013-06-05 05:41:00,63.8,62.0,29.86,North,-999,-999.0,-999.0,93,0.00,,,0.00,tws,2013-06-05 09:41:00,
2013-06-05 05:46:00,63.7,62.0,29.86,North,-999,-999.0,-999.0,94,0.00,,,0.00,tws,2013-06-05 09:46:00,
2013-06-05 05:56:00,63.4,61.9,29.86,North,-999,-999.0,-999.0,95,0.00,,,0.00,tws,2013-06-05 09:56:00,
2013-06-05 06:01:00,63.2,61.9,29.86,North,-999,-999.0,-999.0,95,0.00,,,0.00,tws,2013-06-05 10:01:00,
2013-06-05 06:11:00,62.9,61.7,29.86,North,-999,-999.0,-999.0,95,0.00,,,0.00,tws,2013-06-05 10:11:00,
2013-06-05 06:16:00,62.8,61.7,29.86,North,-999,-999.0,-999.0,96,0.00,,,0.00,tws,2013-06-05 10:16:00,
2013-06-05 06:21:00,62.6,61.7,29.86,North,-999,-999.0,-999.0,96,0.00,,,0.00,tws,2013-06-05 10:21:00,
2013-06-05 06:31:00,62.7,61.8,29.87,North,-999,-999.0,-999.0,97,0.00,,,0.00,tws,2013-06-05 10:31:00,
2013-06-05 06:36:00,62.8,61.9,29.87,North,-999,-999.0,-999.0,96,0.00,,,0.00,tws,2013-06-05 10:36:00,
2013-06-05 06:46:00,63.1,62.4,29.87,North,-999,-999.0,-999.0,97,0.00,,,0.00,tws,2013-06-05 10:46:00,
2013-06-05 06:56:00,63.5,62.6,29.87,North,-999,-999.0,-999.0,96,0.00,,,0.00,tws,2013-06-05 10:56:00,
2013-06-05 07:06:00,63.9,62.9,29.87,North,-999,-999.0,-999.0,96,0.00,,,0.00,tws,2013-06-05 11:06:00,
2013-06-05 07:16:00,64.1,63.0,29.88,North,-999,-999.0,-999.0,96,0.00,,,0.00,tws,2013-06-05 11:16:00,
2013-06-05 07:26:00,64.4,63.3,29.88,North,-999,-999.0,-999.0,96,0.00,,,0.00,tws,2013-06-05 11:26:00,
2013-06-05 07:31:00,64.5,63.3,29.89,North,-999,-999.0,-999.0,95,0.00,,,0.00,tws,2013-06-05 11:31:00,
2013-06-05 07:36:00,64.5,63.2,29.88,North,-999,-999.0,-999.0,95,0.00,,,0.00,tws,2013-06-05 11:36:00,
2013-06-05 07:46:00,64.9,63.5,29.89,North,-999,-999.0,-999.0,95,0.00,,,0.00,tws,2013-06-05 11:46:00,
2013-06-05 07:51:00,65.0,63.5,29.89,North,-999,-999.0,-999.0,94,0.00,,,0.00,tws,2013-06-05 11:51:00,
2013-06-05 07:56:00,65.1,63.6,29.89,North,-999,-999.0,-999.0,94,0.00,,,0.00,tws,2013-06-05 11:56:00,
2013-06-05 08:06:00,65.3,63.6,29.89,North,-999,-999.0,-999.0,94,0.00,,,0.00,tws,2013-06-05 12:06:00,
2013-06-05 08:11:00,65.3,63.6,29.89,North,-999,-999.0,-999.0,94,0.00,,,0.00,tws,2013-06-05 12:11:00,
2013-06-05 08:16:00,65.4,63.7,29.89,North,-999,-999.0,-999.0,94,0.00,,,0.00,tws,2013-06-05 12:16:00,
2013-06-05 08:21:00,65.7,64.0,29.89,North,-999,-999.0,-999.0,94,0.00,,,0.00,tws,2013-06-05 12:21:00,
2013-06-05 08:26:00,66.1,64.3,29.89,North,-999,-999.0,-999.0,94,0.00,,,0.00,tws,2013-06-05 12:26:00,
2013-06-05 08:31:00,66.4,64.3,29.89,North,-999,-999.0,-999.0,92,0.00,,,0.00,tws,2013-06-05 12:31:00,
2013-06-05 08:36:00,66.6,64.3,29.89,North,-999,-999.0,-999.0,92,0.00,,,0.00,tws,2013-06-05 12:36:00,
2013-06-05 08:46:00,66.9,64.3,29.89,North,-999,-999.0,-999.0,91,0.00,,,0.00,tws,2013-06-05 12:46:00,
2013-06-05 08:56:00,66.7,64.0,29.89,North,-999,-999.0,-999.0,90,0.00,,,0.00,tws,2013-06-05 12:56:00,
2013-06-05 09:01:00,66.7,64.0,29.89,North,-999,-999.0,-999.0,91,0.00,,,0.00,tws,2013-06-05 13:01:00,
2013-06-05 09:11:00,67.1,64.5,29.89,North,-999,-999.0,-999.0,91,0.00,,,0.00,tws,2013-06-05 13:11:00,
2013-06-05 09:16:00,67.7,64.8,29.89,North,-999,-999.0,-999.0,90,0.00,,,0.00,tws,2013-06-05 13:16:00,
2013-06-05 09:21:00,68.0,64.6,29.89,North,-999,-999.0,-999.0,88,0.00,,,0.00,tws,2013-06-05 13:21:00,
2013-06-05 09:26:00,68.0,64.4,29.89,North,-999,-999.0,-999.0,88,0.00,,,0.00,tws,2013-06-05 13:26:00,
2013-06-05 09:36:00,68.0,64.4,29.89,North,-999,-999.0,-999.0,88,0.00,,,0.00,tws,2013-06-05 13:36:00,
2013-06-05 09:46:00,67.8,64.2,29.89,North,-999,-999.0,-999.0,88,0.00,,,0.00,tws,2013-06-05 13:46:00,
2013-06-05 09:51:00,67.9,64.4,29.89,North,-999,-999.0,-999.0,88,0.00,,,0.00,tws,2013-06-05 13:51:00,
2013-06-05 09:56:00,68.0,64.5,29.89,North,-999,-999.0,-999.0,88,0.00,,,0.00,tws,2013-06-05 13:56:00,
2013-06-05 10:01:00,68.3,64.6,29.89,North,-999,-999.0,-999.0,88,0.00,,,0.00,tws,2013-06-05 14:01:00,
2013-06-05 10:11:00,69.0,65.0,29.89,North,-999,-999.0,-999.0,86,0.00,,,0.00,tws,2013-06-05 14:11:00,
2013-06-05 10:16:00,69.2,65.0,29.89,North,-999,-999.0,-999.0,86,0.00,,,0.00,tws,2013-06-05 14:16:00,
2013-06-05 10:21:00,69.4,65.0,29.88,North,-999,-999.0,-999.0,85,0.00,,,0.00,tws,2013-06-05 14:21:00,
2013-06-05 10:26:00,69.7,65.3,29.88,North,-999,-999.0,-999.0,85,0.00,,,0.00,tws,2013-06-05 14:26:00,
2013-06-05 10:36:00,70.3,65.3,29.87,North,-999,-999.0,-999.0,84,0.00,,,0.00,tws,2013-06-05 14:36:00,
2013-06-05 10:41:00,70.4,65.3,29.87,North,-999,-999.0,-999.0,83,0.00,,,0.00,tws,2013-06-05 14:41:00,
2013-06-05 10:46:00,70.6,65.5,29.87,North,-999,-999.0,-999.0,83,0.00,,,0.00,tws,2013-06-05 14:46:00,
2013-06-05 10:51:00,71.1,65.7,29.87,North,-999,-999.0,-999.0,82,0.00,,,0.00,tws,2013-06-05 14:51:00,
2013-06-05 11:01:00,71.5,65.3,29.87,North,-999,-999.0,-999.0,80,0.00,,,0.00,tws,2013-06-05 15:01:00,
2013-06-05 11:06:00,71.5,65.4,29.87,North,-999,-999.0,-999.0,80,0.00,,,0.00,tws,2013-06-05 15:06:00,
2013-06-05 11:11:00,71.4,65.1,29.87,North,-999,-999.0,-999.0,80,0.00,,,0.00,tws,2013-06-05 15:11:00,
2013-06-05 11:16:00,71.6,65.5,29.87,North,-999,-999.0,-999.0,80,0.00,,,0.00,tws,2013-06-05 15:16:00,
2013-06-05 11:26:00,72.5,65.9,29.87,North,-999,-999.0,-999.0,79,0.00,,,0.00,tws,2013-06-05 15:26:00,
2013-06-05 11:36:00,73.4,66.4,29.87,North,-999,-999.0,-999.0,78,0.00,,,0.00,tws,2013-06-05 15:36:00,
2013-06-05 11:46:00,74.0,66.3,29.86,North,-999,-999.0,-999.0,76,0.00,,,0.00,tws,2013-06-05 15:46:00,
2013-06-05 11:56:00,74.3,66.1,29.86,North,-999,-999.0,-999.0,75,0.00,,,0.00,tws,2013-06-05 15:56:00,
2013-06-05 12:06:00,74.7,66.3,29.86,North,-999,-999.0,-999.0,74,0.00,,,0.00,tws,2013-06-05 16:06:00,
2013-06-05 12:11:00,74.9,66.2,29.86,North,-999,-999.0,-999.0,74,0.00,,,0.00,tws,2013-06-05 16:11:00,
2013-06-05 12:16:00,74.7,66.0,29.86,North,-999,-999.0,-999.0,73,0.00,,,0.00,tws,2013-06-05 16:16:00,
2013-06-05 12:26:00,73.5,65.3,29.86,North,-999,-999.0,-999.0,75,0.00,,,0.00,tws,2013-06-05 16:26:00,
2013-06-05 12:36:00,72.6,65.2,29.86,North,-999,-999.0,-999.0,77,0.00,,,0.00,tws,2013-06-05 16:36:00,
2013-06-05 12:46:00,72.0,65.0,29.86,North,-999,-999.0,-999.0,78,0.00,,,0.00,tws,2013-06-05 16:46:00,
2013-06-05 12:51:00,71.9,65.2,29.86,North,-999,-999.0,-999.0,79,0.00,,,0.00,tws,2013-06-05 16:51:00,
2013-06-05 12:56:00,72.0,65.6,29.86,North,-999,-999.0,-999.0,80,0.00,,,0.00,tws,2013-06-05 16:56:00,
2013-06-05 13:01:00,72.4,65.9,29.86,North,-999,-999.0,-999.0,79,0.00,,,0.00,tws,2013-06-05 17:01:00,
2013-06-05 13:06:00,72.7,66.0,29.86,North,-999,-999.0,-999.0,79,0.00,,,0.00,tws,2013-06-05 17:06:00,
2013-06-05 13:11:00,72.7,66.2,29.86,North,-999,-999.0,-999.0,79,0.00,,,0.00,tws,2013-06-05 17:11:00,
2013-06-05 13:21:00,73.9,66.6,29.86,North,-999,-999.0,-999.0,77,0.00,,,0.00,tws,2013-06-05 17:21:00,
2013-06-05 13:26:00,74.3,66.6,29.86,North,-999,-999.0,-999.0,76,0.00,,,0.00,tws,2013-06-05 17:26:00,
2013-06-05 13:36:00,75.2,67.2,29.85,North,-999,-999.0,-999.0,75,0.00,,,0.00,tws,2013-06-05 17:36:00,
2013-06-05 13:41:00,75.2,66.7,29.84,North,-999,-999.0,-999.0,74,0.00,,,0.00,tws,2013-06-05 17:41:00,
2013-06-05 13:46:00,75.3,67.1,29.84,North,-999,-999.0,-999.0,75,0.00,,,0.00,tws,2013-06-05 17:46:00,
2013-06-05 13:51:00,75.7,67.3,29.84,North,-999,-999.0,-999.0,74,0.00,,,0.00,tws,2013-06-05 17:51:00,
2013-06-05 13:56:00,75.8,66.5,29.84,North,-999,-999.0,-999.0,72,0.00,,,0.00,tws,2013-06-05 17:56:00,
2013-06-05 14:01:00,75.3,66.2,29.83,North,-999,-999.0,-999.0,73,0.00,,,0.00,tws,2013-06-05 18:01:00,
2013-06-05 14:06:00,75.2,66.8,29.83,North,-999,-999.0,-999.0,74,0.00,,,0.00,tws,2013-06-05 18:06:00,
2013-06-05 14:11:00,75.0,66.8,29.83,North,-999,-999.0,-999.0,75,0.00,,,0.00,tws,2013-06-05 18:11:00,
2013-06-05 14:16:00,74.9,66.6,29.83,North,-999,-999.0,-999.0,75,0.00,,,0.00,tws,2013-06-05 18:16:00,
2013-06-05 14:26:00,74.8,66.4,29.83,North,-999,-999.0,-999.0,74,0.00,,,0.00,tws,2013-06-05 18:26:00,
2013-06-05 14:31:00,75.1,67.0,29.83,North,-999,-999.0,-999.0,75,0.00,,,0.00,tws,2013-06-05 18:31:00,
2013-06-05 14:36:00,75.6,67.2,29.83,North,-999,-999.0,-999.0,74,0.00,,,0.00,tws,2013-06-05 18:36:00,
2013-06-05 14:41:00,75.7,67.2,29.83,North,-999,-999.0,-999.0,74,0.00,,,0.00,tws,2013-06-05 18:41:00,
2013-06-05 14:46:00,75.8,67.7,29.83,North,-999,-999.0,-999.0,75,0.00,,,0.00,tws,2013-06-05 18:46:00,
2013-06-05 14:56:00,75.4,67.2,29.82,North,-999,-999.0,-999.0,75,0.00,,,0.00,tws,2013-06-05 18:56:00,
2013-06-05 15:06:00,75.1,66.8,29.82,North,-999,-999.0,-999.0,74,0.00,,,0.00,tws,2013-06-05 19:06:00,
2013-06-05 15:11:00,74.9,66.4,29.82,North,-999,-999.0,-999.0,74,0.00,,,0.00,tws,2013-06-05 19:11:00,
2013-06-05 15:21:00,74.8,66.9,29.81,North,-999,-999.0,-999.0,76,0.00,,,0.00,tws,2013-06-05 19:21:00,
2013-06-05 15:26:00,75.1,67.1,29.80,North,-999,-999.0,-999.0,75,0.00,,,0.00,tws,2013-06-05 19:26:00,
2013-06-05 15:31:00,75.0,67.1,29.80,North,-999,-999.0,-999.0,76,0.00,,,0.00,tws,2013-06-05 19:31:00,
2013-06-05 15:36:00,75.3,67.3,29.80,North,-999,-999.0,-999.0,75,0.00,,,0.00,tws,2013-06-05 19:36:00,
2013-06-05 15:41:00,75.3,67.3,29.79,North,-999,-999.0,-999.0,75,0.00,,,0.00,tws,2013-06-05 19:41:00,
2013-06-05 15:51:00,75.7,67.5,29.80,North,-999,-999.0,-999.0,75,0.00,,,0.00,tws,2013-06-05 19:51:00,
2013-06-05 15:56:00,75.3,67.1,29.79,North,-999,-999.0,-999.0,75,0.00,,,0.00,tws,2013-06-05 19:56:00,
2013-06-05 16:01:00,74.9,66.8,29.79,North,-999,-999.0,-999.0,75,0.00,,,0.00,tws,2013-06-05 20:01:00,
2013-06-05 16:11:00,74.9,66.6,29.79,North,-999,-999.0,-999.0,75,0.00,,,0.00,tws,2013-06-05 20:11:00,
2013-06-05 16:16:00,74.9,66.8,29.79,North,-999,-999.0,-999.0,75,0.00,,,0.00,tws,2013-06-05 20:16:00,
2013-06-05 16:26:00,75.0,67.1,29.79,North,-999,-999.0,-999.0,76,0.00,,,0.00,tws,2013-06-05 20:26:00,
2013-06-05 16:31:00,74.6,67.0,29.79,North,-999,-999.0,-999.0,76,0.00,,,0.00,tws,2013-06-05 20:31:00,
2013-06-05 16:37:00,74.1,66.8,29.79,North,-999,-999.0,-999.0,77,0.00,,,0.00,tws,2013-06-05 20:37:00,
2013-06-05 16:46:00,72.9,66.1,29.80,North,-999,-999.0,-999.0,79,0.00,,,0.00,tws,2013-06-05 20:46:00,
2013-06-05 16:56:00,71.4,65.5,29.79,North,-999,-999.0,-999.0,81,0.00,,,0.00,tws,2013-06-05 20:56:00,
2013-06-05 17:06:00,71.0,66.0,29.79,North,-999,-999.0,-999.0,83,0.00,,,0.00,tws,2013-06-05 21:06:00,
2013-06-05 17:11:00,71.0,66.1,29.79,North,-999,-999.0,-999.0,84,0.00,,,0.00,tws,2013-06-05 21:11:00,
2013-06-05 17:16:00,71.0,66.0,29.78,North,-999,-999.0,-999.0,83,0.00,,,0.00,tws,2013-06-05 21:16:00,
2013-06-05 17:21:00,71.1,65.7,29.78,North,-999,-999.0,-999.0,82,0.00,,,0.00,tws,2013-06-05 21:21:00,
2013-06-05 17:26:00,71.5,66.1,29.78,North,-999,-999.0,-999.0,82,0.00,,,0.00,tws,2013-06-05 21:26:00,
2013-06-05 17:36:00,71.9,66.4,29.78,North,-999,-999.0,-999.0,82,0.00,,,0.00,tws,2013-06-05 21:36:00,
2013-06-05 17:46:00,71.6,66.5,29.78,North,-999,-999.0,-999.0,83,0.00,,,0.00,tws,2013-06-05 21:46:00,
2013-06-05 17:51:00,71.5,66.2,29.78,North,-999,-999.0,-999.0,83,0.00,,,0.00,tws,2013-06-05 21:51:00,
2013-06-05 17:56:00,71.5,66.2,29.77,North,-999,-999.0,-999.0,83,0.00,,,0.00,tws,2013-06-05 21:56:00,
2013-06-05 18:01:00,71.6,66.4,29.77,North,-999,-999.0,-999.0,83,0.00,,,0.00,tws,2013-06-05 22:01:00,
2013-06-05 18:06:00,71.6,66.3,29.77,North,-999,-999.0,-999.0,83,0.00,,,0.00,tws,2013-06-05 22:06:00,
2013-06-05 18:16:00,71.2,65.8,29.77,North,-999,-999.0,-999.0,82,0.00,,,0.00,tws,2013-06-05 22:16:00,
2013-06-05 18:21:00,70.9,65.7,29.77,North,-999,-999.0,-999.0,83,0.00,,,0.00,tws,2013-06-05 22:21:00,
2013-06-05 18:26:00,70.4,65.6,29.77,North,-999,-999.0,-999.0,84,0.00,,,0.00,tws,2013-06-05 22:26:00,
2013-06-05 18:31:00,70.1,65.6,29.77,North,-999,-999.0,-999.0,85,0.00,,,0.00,tws,2013-06-05 22:31:00,
2013-06-05 18:36:00,70.0,65.9,29.77,North,-999,-999.0,-999.0,86,0.00,,,0.00,tws,2013-06-05 22:36:00,
2013-06-05 18:41:00,70.0,65.9,29.77,North,-999,-999.0,-999.0,86,0.00,,,0.00,tws,2013-06-05 22:41:00,
2013-06-05 18:46:00,70.0,65.6,29.77,North,-999,-999.0,-999.0,85,0.00,,,0.00,tws,2013-06-05 22:46:00,
2013-06-05 18:51:00,69.8,65.6,29.77,North,-999,-999.0,-999.0,86,0.00,,,0.00,tws,2013-06-05 22:51:00,
2013-06-05 18:56:00,69.7,65.5,29.77,North,-999,-999.0,-999.0,86,0.00,,,0.00,tws,2013-06-05 22:56:00,
2013-06-05 19:06:00,69.5,65.6,29.77,North,-999,-999.0,-999.0,87,0.00,,,0.00,tws,2013-06-05 23:06:00,
2013-06-05 19:11:00,69.4,65.5,29.77,North,-999,-999.0,-999.0,87,0.00,,,0.00,tws,2013-06-05 23:11:00,
2013-06-05 19:16:00,69.3,65.5,29.77,North,-999,-999.0,-999.0,87,0.00,,,0.00,tws,2013-06-05 23:16:00,
2013-06-05 19:26:00,69.0,65.6,29.77,North,-999,-999.0,-999.0,88,0.00,,,0.00,tws,2013-06-05 23:26:00,
2013-06-05 19:31:00,69.0,65.7,29.78,North,-999,-999.0,-999.0,89,0.00,,,0.00,tws,2013-06-05 23:31:00,
2013-06-05 19:36:00,69.0,65.6,29.78,North,-999,-999.0,-999.0,88,0.00,,,0.00,tws,2013-06-05 23:36:00,
2013-06-05 19:41:00,68.9,65.6,29.78,North,-999,-999.0,-999.0,89,0.00,,,0.00,tws,2013-06-05 23:41:00,
2013-06-05 19:46:00,68.8,65.5,29.78,North,-999,-999.0,-999.0,89,0.00,,,0.00,tws,2013-06-05 23:46:00,
2013-06-05 19:56:00,68.6,65.3,29.79,North,-999,-999.0,-999.0,89,0.00,,,0.00,tws,2013-06-05 23:56:00,
2013-06-05 20:01:00,68.5,65.3,29.78,North,-999,-999.0,-999.0,89,0.00,,,0.00,tws,2013-06-06 00:01:00,
2013-06-05 20:06:00,68.5,65.3,29.78,North,-999,-999.0,-999.0,89,0.00,,,0.00,tws,2013-06-06 00:06:00,
2013-06-05 20:11:00,68.4,65.3,29.78,North,-999,-999.0,-999.0,89,0.00,,,0.00,tws,2013-06-06 00:11:00,
2013-06-05 20:21:00,68.3,65.3,29.77,North,-999,-999.0,-999.0,89,0.00,,,0.00,tws,2013-06-06 00:21:00,
2013-06-05 20:26:00,68.2,65.3,29.77,North,-999,-999.0,-999.0,90,0.00,,,0.00,tws,2013-06-06 00:26:00,
2013-06-05 20:36:00,68.0,65.2,29.78,North,-999,-999.0,-999.0,90,0.00,,,0.00,tws,2013-06-06 00:36:00,
2013-06-05 20:41:00,67.9,65.1,29.78,North,-999,-999.0,-999.0,90,0.00,,,0.00,tws,2013-06-06 00:41:00,
2013-06-05 20:51:00,67.5,65.4,29.79,North,-999,-999.0,-999.0,93,0.36,,,0.03,tws,2013-06-06 00:51:00,
2013-06-05 20:56:00,67.0,65.1,29.79,North,-999,-999.0,-999.0,93,0.24,,,0.05,tws,2013-06-06 00:56:00,
2013-06-05 21:06:00,65.6,64.5,29.79,North,-999,-999.0,-999.0,96,0.24,,,0.10,tws,2013-06-06 01:06:00,
2013-06-05 21:11:00,65.3,64.5,29.79,North,-999,-999.0,-999.0,97,0.36,,,0.13,tws,2013-06-06 01:11:00,
2013-06-05 21:16:00,65.1,64.3,29.79,North,-999,-999.0,-999.0,97,0.24,,,0.15,tws,2013-06-06 01:16:00,
2013-06-05 21:21:00,64.9,64.2,29.79,North,-999,-999.0,-999.0,97,0.24,,,0.17,tws,2013-06-06 01:21:00,
2013-06-05 21:26:00,64.7,64.2,29.79,North,-999,-999.0,-999.0,98,0.24,,,0.19,tws,2013-06-06 01:26:00,
2013-06-05 21:36:00,64.7,64.2,29.80,North,-999,-999.0,-999.0,98,0.24,,,0.23,tws,2013-06-06 01:36:00,
2013-06-05 21:41:00,64.7,64.3,29.80,North,-999,-999.0,-999.0,98,0.00,,,0.23,tws,2013-06-06 01:41:00,
2013-06-05 21:46:00,64.7,64.4,29.80,North,-999,-999.0,-999.0,98,0.00,,,0.23,tws,2013-06-06 01:46:00,
2013-06-05 21:56:00,64.7,64.3,29.80,North,-999,-999.0,-999.0,98,0.00,,,0.24,tws,2013-06-06 01:56:00,
2013-06-05 22:06:00,64.8,64.5,29.80,North,-999,-999.0,-999.0,98,0.00,,,0.24,tws,2013-06-06 02:06:00,
2013-06-05 22:11:00,64.8,64.6,29.80,North,-999,-999.0,-999.0,99,0.00,,,0.24,tws,2013-06-06 02:11:00,
2013-06-05 22:16:00,64.7,64.5,29.80,North,-999,-999.0,-999.0,99,0.00,,,0.24,tws,2013-06-06 02:16:00,
2013-06-05 22:26:00,64.7,64.6,29.80,North,-999,-999.0,-999.0,99,0.00,,,0.24,tws,2013-06-06 02:26:00,
2013-06-05 22:36:00,64.8,64.7,29.80,North,-999,-999.0,-999.0,99,0.00,,,0.24,tws,2013-06-06 02:36:00,
2013-06-05 22:41:00,64.8,64.7,29.80,North,-999,-999.0,-999.0,99,0.00,,,0.24,tws,2013-06-06 02:41:00,
2013-06-05 22:46:00,64.8,64.7,29.80,North,-999,-999.0,-999.0,99,0.00,,,0.24,tws,2013-06-06 02:46:00,
2013-06-05 22:56:00,64.7,64.7,29.80,North,-999,-999.0,-999.0,99,0.00,,,0.24,tws,2013-06-06 02:56:00,
2013-06-05 23:06:00,64.7,64.7,29.80,North,-999,-999.0,-999.0,99,0.00,,,0.24,tws,2013-06-06 03:06:00,
2013-06-05 23:11:00,64.7,64.7,29.79,North,-999,-999.0,-999.0,99,0.00,,,0.24,tws,2013-06-06 03:11:00,
2013-06-05 23:16:00,64.7,64.7,29.80,North,-999,-999.0,-999.0,99,0.00,,,0.24,tws,2013-06-06 03:16:00,
2013-06-05 23:26:00,64.7,64.8,29.79,North,-999,-999.0,-999.0,100,0.00,,,0.24,tws,2013-06-06 03:26:00,
2013-06-05 23:31:00,64.7,64.8,29.79,North,-999,-999.0,-999.0,100,0.00,,,0.24,tws,2013-06-06 03:31:00,
2013-06-05 23:36:00,64.7,64.7,29.79,North,-999,-999.0,-999.0,100,0.00,,,0.24,tws,2013-06-06 03:36:00,
2013-06-05 23:41:00,64.7,64.7,29.79,North,-999,-999.0,-999.0,100,0.00,,,0.24,tws,2013-06-06 03:41:00,
2013-06-05 23:51:00,64.7,64.7,29.79,North,-999,-999.0,-999.0,99,0.00,,,0.24,tws,2013-06-06 03:51:00,
2013-06-05 23:56:00,64.7,64.8,29.78,North,-999,-999.0,-999.0,100,0.00,,,0.24,tws,2013-06-06 03:56:00,